Terug naar catalogus

DRO-A

LostWetenschapLPO
NORAD 59228·PAYLOAD·🇨🇳 China

Gelanceerd Mar 13, 2024 vanaf Xichang Satellite Launch Center

Loading…

TLE

VerouderendSource: Space-Track

Epoch: Jun 30, 2026, 03:19 UTC

1 59228U 24048A   26181.13851852 -.00004796  00000-0  00000-0 0  9992
2 59228  28.9267 357.2682 3023857  46.6982 255.4640  0.03953649   137

Volg DRO-A in realtime met AllMySat

Download on the App Store